Tracking 29892 objects as of 21-Nov-2024
HD Live streaming from Space Station
objects crossing your sky now

DELTA 1 DEB

Track DELTA 1 DEB now!
10-day predictions


NORAD ID: 7156
Int'l Code: 1973-086DV
Perigee: 1,514.7 km
Apogee: 1,733.1 km
Inclination: 102.1 °
Period: 118.6 minutes
Semi major axis: 7994 km
RCS: 0.1028 m2 (medium)
Launch date: November 6, 1973
Source: United States (US)
Launch site: AIR FORCE WESTERN TEST RANGE (AFWTR)

Note: This is SATELLITE DEBRIS
Your satellite tracking list
Your tracking list is empty




NASA's NSSDC Master Catalog

Two Line Element Set (TLE):
1  7156U 73086DV  24325.94401862 -.00000063  00000-0 -22322-3 0  9998
2  7156 102.0647 220.8606 0136578 126.4670 300.8541 12.14451771263220
Source of the keplerian elements: AFSPC